NANOSAT-1

Last updated on July 6, 2021, 3:39 p.m. UTC

1 28493U 04049B   21186.84739141  .00000093  00000-0  22111-4 0  9991
2 28493  98.1119 282.6316 0003740 337.3704  22.7339 14.73689590888817
UTC
Height (km)
Latitude
Longitude
Inclination
Orbital Period
UTC large
Height (km)
Speed (km/s)
/
Latitude / Longitude
Inclination (degrees)
Orbital Period (minutes)
Azimuth
Elevation
Range (km)
Doppler Factor
iOS Compass Heading
iOS Angle